{"data":{"norad_id":67243,"epoch":"2026-05-25T03:45:45.145728Z","epoch_age_seconds":57379,"freshness":"FRESH","line1":"1 67243U 25311H   26145.15677252 -.00000100  00000+0  52013-4 0  9993","line2":"2 67243  50.0005 198.4952 0001034 246.0066 114.0698 13.29322627 20271","mean_motion":13.29322627,"eccentricity":0.0001034,"inclination_deg":50.0005,"raan_deg":198.4952,"arg_perigee_deg":246.0066,"mean_anomaly_deg":114.0698,"bstar":5.2013e-5,"rev_number":2027,"period_min":108.32584737159,"perigee_km":1148.5409662023,"apogee_km":1150.0976441662,"semimajor_km":7527.4563051842,"source":"CELESTRAK","updated_at":"2026-05-25T13:38:06.823283Z"}}